| time (UTC) | temp C | wind direction | speed KPH | gust KPH | rain 1hr cm | rain 24hr cm | rain mn cm | humidity % | barometer mb |
| 20260508023123 | 6 | 3 | 3.2 | 4.8 | 0.00 | 0.00 | 0.00 | 99 | |
| 20260508022123 | 6 | 337 | 1.6 | 3.2 | 0.00 | 0.00 | 0.00 | 99 | |
| 20260508021123 | 6 | 5 | 4.8 | 6.4 | 0.00 | 0.00 | 0.00 | 99 | |
| 20260508020123 | 6 | 31 | 1.6 | 4.8 | 0.00 | 0.00 | 0.00 | 99 | |
| 20260508015123 | 6 | 27 | 4.8 | 8.0 | 0.00 | 0.00 | 0.00 | 99 | |
| 20260508014124 | 6 | 352 | 6.4 | 11.3 | 0.00 | 0.00 | 0.00 | 99 | |
| 20260508013123 | 6 | 344 | 3.2 | 3.2 | 0.00 | 0.00 | 0.00 | 99 | |
| 20260508012103 | 6 | 3 | 0.0 | 1.6 | 0.00 | 0.00 | 0.00 | 99 | |
| 20260508005043 | 6 | 36 | 3.2 | 6.4 | 0.00 | 0.00 | 0.00 | 99 | |
| 20260508004043 | 6 | 31 | 6.4 | 8.0 | 0.00 | 0.00 | 0.00 | 99 | |
| 20260508003023 | 6 | 44 | 1.6 | 4.8 | 0.00 | 0.00 | 0.00 | 99 | |
| 20260508002023 | 7 | 14 | 6.4 | 9.7 | 0.00 | 0.00 | 0.00 | 99 | |
| 20260508001023 | 7 | 307 | 3.2 | 4.8 | 0.00 | 0.00 | 0.00 | 99 | |
| 20260508000023 | 7 | 16 | 8.0 | 8.0 | 0.00 | 0.00 | 0.00 | 99 | |
| 20260507235023 | 7 | 4 | 8.0 | 11.3 | 0.00 | 0.00 | 0.00 | 99 | |
| 20260507234023 | 7 | 16 | 4.8 | 6.4 | 0.00 | 0.00 | 0.00 | 99 | |
| 20260507233003 | 7 | 13 | 4.8 | 6.4 | 0.00 | 0.00 | 0.00 | 99 | |
| 20260507232003 | 7 | 352 | 4.8 | 6.4 | 0.00 | 0.00 | 0.00 | 99 | |
| 20260507231003 | 7 | 16 | 3.2 | 4.8 | 0.00 | 0.00 | 0.00 | 99 | |
| 20260507225943 | 7 | 355 | 1.6 | 3.2 | 0.00 | 0.00 | 0.00 | 99 | |
| 20260507224943 | 7 | 341 | 3.2 | 4.8 | 0.00 | 0.00 | 0.00 | 99 | |
| 20260507223923 | 7 | 354 | 1.6 | 3.2 | 0.00 | 0.00 | 0.00 | 99 | |
| 20260507222923 | 7 | 34 | 3.2 | 4.8 | 0.00 | 0.00 | 0.00 | 99 | |
| 20260507221923 | 7 | 345 | 1.6 | 3.2 | 0.00 | 0.00 | 0.00 | 99 | |
| 20260507220923 | 7 | 44 | 3.2 | 4.8 | 0.00 | 0.00 | 0.00 | 99 | |
| 20260507215923 | 7 | 0 | 3.2 | 4.8 | 0.00 | 0.00 | 0.00 | 99 | |
| 20260507214923 | 7 | 356 | 0.0 | 3.2 | 0.00 | 0.00 | 0.00 | 99 | |
| 20260507213923 | 7 | 44 | 1.6 | 6.4 | 0.00 | 0.00 | 0.00 | 99 | |
| 20260507212903 | 7 | 34 | 3.2 | 6.4 | 0.00 | 0.00 | 0.00 | 99 | |
| 20260507211903 | 7 | 12 | 3.2 | 6.4 | 0.00 | 0.00 | 0.00 | 99 | |
| 20260507210903 | 7 | 1 | 1.6 | 1.6 | 0.00 | 0.00 | 0.00 | 99 | |
| 20260507205843 | 7 | 14 | 4.8 | 8.0 | 0.00 | 0.00 | 0.00 | 99 | |
| 20260507204843 | 7 | 38 | 4.8 | 6.4 | 0.00 | 0.00 | 0.00 | 99 | |
| 20260507203823 | 7 | 41 | 8.0 | 9.7 | 0.00 | 0.00 | 0.00 | 99 | |
| 20260507202823 | 7 | 55 | 3.2 | 4.8 | 0.00 | 0.00 | 0.00 | 99 | |
| 20260507201803 | 7 | 60 | 3.2 | 4.8 | 0.00 | 0.00 | 0.00 | 99 | |
| 20260507200803 | 7 | 17 | 4.8 | 6.4 | 0.00 | 0.00 | 0.00 | 99 | |
| 20260507195803 | 8 | 21 | 3.2 | 4.8 | 0.00 | 0.00 | 0.00 | 99 | |
| 20260507194743 | 8 | 37 | 3.2 | 3.2 | 0.00 | 0.00 | 0.00 | 99 | |
| 20260507193743 | 8 | 315 | 1.6 | 3.2 | 0.00 | 0.00 | 0.00 | 99 | |
| 20260507192723 | 8 | 346 | 1.6 | 3.2 | 0.00 | 0.00 | 0.00 | 99 | |
| 20260507191723 | 8 | 55 | 3.2 | 4.8 | 0.00 | 0.00 | 0.00 | 99 | |
| 20260507190703 | 8 | 354 | 3.2 | 6.4 | 0.00 | 0.00 | 0.00 | 99 | |
| 20260507185703 | 8 | 15 | 3.2 | 6.4 | 0.00 | 0.00 | 0.00 | 99 | |
| 20260507184703 | 8 | 98 | 8.0 | 8.0 | 0.00 | 0.00 | 0.00 | 99 | |
| 20260507183643 | 8 | 99 | 8.0 | 11.3 | 0.00 | 0.00 | 0.00 | 99 | |
| 20260507182643 | 8 | 86 | 4.8 | 8.0 | 0.00 | 0.00 | 0.00 | 99 | |
| 20260507181642 | 8 | 0 | 4.8 | 6.4 | 0.00 | 0.00 | 0.00 | 99 | |
| 20260507180642 | 8 | 20 | 3.2 | 3.2 | 0.00 | 0.00 | 0.00 | 99 | |
| 20260507175622 | 8 | 19 | 3.2 | 3.2 | 0.00 | 0.00 | 0.00 | 99 | |
| 20260507174602 | 8 | 38 | 6.4 | 8.0 | 0.00 | 0.00 | 0.00 | 99 | |
| 20260507173602 | 8 | 6 | 6.4 | 9.7 | 0.00 | 0.00 | 0.00 | 99 | |
| 20260507172542 | 8 | 37 | 8.0 | 12.9 | 0.00 | 0.00 | 0.00 | 99 | |
| 20260507171542 | 9 | 61 | 1.6 | 4.8 | 0.00 | 0.00 | 0.00 | 99 | |
| 20260507170522 | 8 | 51 | 4.8 | 6.4 | 0.00 | 0.00 | 0.00 | 99 | |
| 20260507165522 | 9 | 27 | 3.2 | 3.2 | 0.00 | 0.00 | 0.00 | 99 | |
| 20260507164522 | 9 | 25 | 4.8 | 4.8 | 0.00 | 0.00 | 0.00 | 99 | |
| 20260507163502 | 9 | 344 | 6.4 | 8.0 | 0.00 | 0.00 | 0.00 | 99 | |
| 20260507162502 | 9 | 41 | 3.2 | 6.4 | 0.00 | 0.00 | 0.00 | 99 | |
| 20260507161442 | 9 | 337 | 4.8 | 6.4 | 0.00 | 0.00 | 0.00 | 99 | |
| 20260507160442 | 9 | 0 | 6.4 | 8.0 | 0.00 | 0.00 | 0.00 | 99 | |
| 20260507155422 | 9 | 341 | 6.4 | 8.0 | 0.00 | 0.00 | 0.00 | 99 | |
| 20260507154422 | 9 | 41 | 4.8 | 6.4 | 0.00 | 0.00 | 0.00 | 99 | |
| 20260507153422 | 9 | 45 | 4.8 | 9.7 | 0.00 | 0.00 | 0.00 | 99 | |
| 20260507152402 | 9 | 18 | 4.8 | 6.4 | 0.00 | 0.00 | 0.00 | 99 | |
| 20260507151402 | 9 | 34 | 1.6 | 4.8 | 0.00 | 0.00 | 0.00 | 99 | |
| 20260507150342 | 10 | 10 | 6.4 | 4.8 | 0.00 | 0.00 | 0.00 | 99 | |
| 20260507145342 | 10 | 2 | 6.4 | 6.4 | 0.00 | 0.00 | 0.00 | 99 | |
| 20260507144322 | 10 | 29 | 6.4 | 8.0 | 0.00 | 0.00 | 0.00 | 99 | |
| 20260507143322 | 10 | 17 | 4.8 | 9.7 | 0.00 | 0.00 | 0.00 | 99 | |
| 20260507142322 | 10 | 10 | 3.2 | 4.8 | 0.00 | 0.00 | 0.00 | 99 | |
| 20260507141302 | 10 | 359 | 8.0 | 8.0 | 0.00 | 0.00 | 0.00 | 99 | |
| 20260507140302 | 10 | 44 | 4.8 | 8.0 | 0.00 | 0.00 | 0.00 | 99 | |
| 20260507135242 | 10 | 28 | 8.0 | 9.7 | 0.00 | 0.00 | 0.00 | 99 | |
| 20260507134242 | 10 | 77 | 4.8 | 9.7 | 0.00 | 0.00 | 0.00 | 99 | |
| 20260507133222 | 10 | 46 | 4.8 | 6.4 | 0.00 | 0.00 | 0.00 | 99 | |
| 20260507132222 | 10 | 288 | 3.2 | 6.4 | 0.00 | 0.00 | 0.00 | 99 | |
| 20260507131222 | 10 | 36 | 6.4 | 8.0 | 0.00 | 0.00 | 0.00 | 99 | |
| 20260507130202 | 10 | 48 | 8.0 | 9.7 | 0.00 | 0.00 | 0.00 | 99 | |
| 20260507125202 | 10 | 323 | 8.0 | 16.1 | 0.00 | 0.00 | 0.00 | 99 | |
| 20260507124142 | 10 | 64 | 6.4 | 6.4 | 0.00 | 0.00 | 0.00 | 99 | |
| 20260507123142 | 10 | 33 | 4.8 | 8.0 | 0.00 | 0.00 | 0.00 | 99 | |
| 20260507122122 | 10 | 81 | 4.8 | 8.0 | 0.00 | 0.00 | 0.00 | 99 | |
| 20260507121122 | 10 | 357 | 6.4 | 9.7 | 0.00 | 0.00 | 0.00 | 99 | |
| 20260507120121 | 10 | 33 | 6.4 | 11.3 | 0.00 | 0.00 | 0.00 | 99 | |
| 20260507115102 | 10 | 23 | 6.4 | 8.0 | 0.00 | 0.00 | 0.00 | 99 | |
| 20260507114102 | 9 | 33 | 4.8 | 6.4 | 0.00 | 0.00 | 0.00 | 99 | |
| 20260507113042 | 9 | 34 | 4.8 | 8.0 | 0.00 | 0.00 | 0.00 | 99 | |
| 20260507112041 | 9 | 80 | 6.4 | 8.0 | 0.00 | 0.00 | 0.00 | 99 | |
| 20260507111021 | 8 | 42 | 3.2 | 11.3 | 0.00 | 0.00 | 0.00 | 99 | |
| 20260507110021 | 8 | 68 | 4.8 | 4.8 | 0.00 | 0.00 | 0.00 | 99 | |
| 20260507105001 | 8 | 31 | 4.8 | 8.0 | 0.00 | 0.00 | 0.00 | 99 | |
| 20260507104002 | 8 | 41 | 8.0 | 9.7 | 0.00 | 0.00 | 0.00 | 99 | |
| 20260507103001 | 8 | 18 | 1.6 | 3.2 | 0.00 | 0.00 | 0.00 | 99 | |
| 20260507101941 | 8 | 41 | 4.8 | 12.9 | 0.00 | 0.00 | 0.00 | 99 | |
| 20260507100941 | 8 | 31 | 6.4 | 8.0 | 0.00 | 0.00 | 0.00 | 99 | |
| 20260507095921 | 8 | 49 | 4.8 | 8.0 | 0.00 | 0.00 | 0.00 | 99 | |
| 20260507094921 | 8 | 56 | 4.8 | 9.7 | 0.00 | 0.00 | 0.00 | 99 | |
| 20260507093901 | 8 | 90 | 4.8 | 8.0 | 0.00 | 0.00 | 0.00 | 99 | |
| 20260507092901 | 8 | 44 | 6.4 | 12.9 | 0.00 | 0.00 | 0.00 | 99 | |
| 20260507091901 | 8 | 54 | 9.7 | 11.3 | 0.00 | 0.00 | 0.00 | 99 | |
| 20260507090901 | 8 | 27 | 8.0 | 11.3 | 0.00 | 0.00 | 0.00 | 99 | |
| 20260507085901 | 7 | 28 | 9.7 | 11.3 | 0.00 | 0.00 | 0.00 | 99 | |
| 20260507084901 | 8 | 66 | 11.3 | 11.3 | 0.00 | 0.00 | 0.00 | 99 | |
| 20260507083901 | 7 | 67 | 11.3 | 12.9 | 0.00 | 0.00 | 0.00 | 99 | |
| 20260507082841 | 7 | 6 | 9.7 | 12.9 | 0.00 | 0.00 | 0.00 | 99 | |
| 20260507081843 | 7 | 22 | 8.0 | 14.5 | 0.00 | 0.00 | 0.00 | 99 | |
| 20260507080841 | 7 | 14 | 4.8 | 8.0 | 0.00 | 0.00 | 0.00 | 99 | |
| 20260507075821 | 7 | 40 | 11.3 | 17.7 | 0.00 | 0.00 | 0.00 | 99 | |
| 20260507074821 | 7 | 4 | 6.4 | 11.3 | 0.00 | 0.00 | 0.00 | 99 | |
| 20260507073801 | 7 | 30 | 6.4 | 6.4 | 0.00 | 0.00 | 0.00 | 99 | |
| 20260507072801 | 7 | 3 | 3.2 | 6.4 | 0.00 | 0.00 | 0.00 | 99 | |
| 20260507071801 | 7 | 90 | 8.0 | 12.9 | 0.00 | 0.00 | 0.00 | 99 | |
| 20260507070801 | 7 | 12 | 6.4 | 8.0 | 0.00 | 0.00 | 0.00 | 99 | |
| 20260507065741 | 7 | 354 | 9.7 | 11.3 | 0.00 | 0.00 | 0.00 | 99 | |
| 20260507064721 | 7 | 29 | 3.2 | 6.4 | 0.00 | 0.00 | 0.00 | 99 | |
| 20260507063721 | 6 | 63 | 11.3 | 16.1 | 0.00 | 0.00 | 0.00 | 99 | |
| 20260507062701 | 6 | 48 | 11.3 | 11.3 | 0.00 | 0.00 | 0.00 | 99 | |
| 20260507061701 | 6 | 86 | 9.7 | 12.9 | 0.00 | 0.00 | 0.00 | 99 | |
| 20260507060641 | 6 | 30 | 9.7 | 14.5 | 0.00 | 0.00 | 0.00 | 99 | |
| 20260507055641 | 6 | 40 | 4.8 | 11.3 | 0.00 | 0.00 | 0.00 | 99 | |
| 20260507054641 | 6 | 35 | 8.0 | 12.9 | 0.00 | 0.00 | 0.00 | 99 | |
| 20260507053621 | 6 | 9 | 3.2 | 4.8 | 0.00 | 0.00 | 0.00 | 99 | |
| 20260507052621 | 6 | 39 | 6.4 | 11.3 | 0.00 | 0.00 | 0.00 | 99 | |
| 20260507051621 | 6 | 56 | 6.4 | 9.7 | 0.00 | 0.00 | 0.00 | 99 | |
| 20260507050621 | 6 | 31 | 3.2 | 4.8 | 0.00 | 0.00 | 0.00 | 99 | |
| 20260507045621 | 6 | 2 | 3.2 | 4.8 | 0.00 | 0.00 | 0.00 | 99 | |
| 20260507044621 | 6 | 8 | 4.8 | 6.4 | 0.00 | 0.00 | 0.00 | 99 | |
| 20260507043621 | 6 | 14 | 1.6 | 3.2 | 0.00 | 0.00 | 0.00 | 99 | |
| 20260507042601 | 6 | 16 | 4.8 | 8.0 | 0.00 | 0.00 | 0.00 | 99 | |
| 20260507041601 | 6 | 35 | 4.8 | 6.4 | 0.00 | 0.00 | 0.00 | 99 | |
| 20260507040601 | 6 | 82 | 3.2 | 6.4 | 0.00 | 0.00 | 0.00 | 99 | |
| 20260507035541 | 6 | 27 | 4.8 | 6.4 | 0.00 | 0.00 | 0.00 | 99 | |
| 20260507034541 | 6 | 34 | 8.0 | 12.9 | 0.00 | 0.00 | 0.00 | 99 | |
| 20260507033521 | 6 | 4 | 3.2 | 3.2 | 0.00 | 0.00 | 0.00 | 99 | |
| 20260507032521 | 6 | 59 | 6.4 | 6.4 | 0.00 | 0.00 | 0.00 | 99 | |
| 20260507031521 | 6 | 21 | 4.8 | 6.4 | 0.00 | 0.00 | 0.00 | 99 | |
| 20260507030521 | 6 | 43 | 6.4 | 6.4 | 0.00 | 0.00 | 0.00 | 99 | |
| 20260507025521 | 6 | 14 | 4.8 | 6.4 | 0.00 | 0.00 | 0.00 | 99 | |
| 20260507024521 | 6 | 30 | 4.8 | 11.3 | 0.00 | 0.00 | 0.00 | 99 |